Location: Unspecified
(48.7670°N, 0.0000°E)
Time: 21:50:38
(UTC+00:00)

Vanguard 2 Rocket - Pass Details

Date: 24 June 2019
Orbit: 554 x 3326 km, 32.9° (Epoch: 19 July)

Event Time Altitude Azimuth Distance (km) Brightness Sun altitude
Rises 20:43:25 0° 216° (SW) 3,677 9.9 -5.3°
Reaches altitude 10° 20:46:13 10° 201° (SSW) 3,044 9.3 -5.6°
Maximum altitude 20:52:05 23° 151° (SSE) 2,807 8.8 -6.3°
Drops below altitude 10° 21:00:42 10° 106° (ESE) 4,651 10.0 -7.2°
Sets 21:06:20 0° 95° (E) 6,182 10.7 -7.8°
